Location: Plateau_FTFHS
(35.6000°N, 81.3500°W)
Time: 05:52:34
(UTC-05:00)

Daily predictions for brighter satellites

Satellite Brightness Start Highest point End
(mag) Time Altitude Azimuth Time Altitude Azimuth Time Altitude Azimuth
Cosmos 2333 Rocket 3.1 04:50:14 43° SE 04:50:14 43° SE 04:54:02 10° SSE
Thor Agena Rocket 4.3 04:52:08 10° SSE 04:55:56 47° SE 04:55:56 47° SE
NOSS 0 Rocket 4.0 05:04:11 65° S 05:04:11 65° S 05:09:22 10° SSE
Cosmos 2219 Rocket 3.5 05:11:11 27° S 05:11:11 27° S 05:13:42 10° S
COSMO-SKYMED 1 3.8 05:14:55 10° SE 05:18:57 39° ENE 05:21:11 23° NNE
Cosmos 371 Rocket 4.1 05:21:06 39° S 05:21:06 39° S 05:24:10 10° S
Cosmos 968 Rocket 4.2 05:20:27 10° S 05:25:32 54° ESE 05:30:41 10° NNE
NOAA 6 3.9 05:23:15 10° NNE 05:28:29 89° E 05:33:40 10° SSW
CZ-3 R/B 4.2 05:30:34 26° WSW 05:36:06 30° SW 05:44:14 10° S
Cosmos 2237 Rocket 2.2 05:36:11 56° W 05:36:33 57° WSW 05:42:06 10° S
USA 229 DEB 3.9 05:33:34 24° NNW 05:38:14 74° ENE 05:45:29 10° SE
USA 229 3.9 05:33:38 23° NNW 05:38:20 74° ENE 05:45:35 10° SE
Cosmos 1500 Rocket 4.3 05:34:37 11° N 05:38:46 53° E 05:43:08 10° SSE
SL-16 R/B 2.6 05:35:44 18° N 05:39:55 62° ENE 05:45:31 10° SSE
Tsikada Rocket 3.9 05:35:33 10° NNW 05:41:54 69° W 05:48:07 10° S
GPS 2-05 Rocket1 3.5 05:44:52 45° SSE 05:44:52 45° SSE 05:47:52 10° E
Cosmos 2297 Rocket 2.8 05:46:57 37° NW 05:46:57 37° NW 05:51:23 10° N
SKYMED 3 4.4 05:44:35 10° SSE 05:48:55 89° WSW 05:51:35 23° NNW
Cosmos 220 Rocket 3.9 05:46:46 10° SSW 05:51:11 74° WNW 05:55:36 10° NNE
DELTA 2 R/B (1) 4.5 05:49:48 15° SW 05:54:06 46° SSE 05:59:25 10° ENE
Cosmos 783 Rocket 4.4 05:51:32 25° NNW 05:54:36 73° WSW 05:59:48 10° S
Cosmos 2227 Rocket 3.6 06:00:39 19° NNW 06:00:39 19° NNW 06:03:10 10° N
Aureole 2 Rocket 2.8 05:57:16 38° NW 05:58:47 69° WSW 06:02:54 10° S
Meteor 1-16 Rocket 4.1 05:54:36 10° S 06:00:05 85° E 06:05:28 10° N
Cosmos 540 Rocket 3.7 05:58:35 35° WNW 06:00:06 46° WSW 06:04:57 10° S
Cosmos 1271 Rocket 3.1 05:57:50 10° S 06:01:39 63° E 06:05:25 10° NNE
OAO 2 Rocket 3.2 06:04:02 34° W 06:06:10 85° S 06:11:06 10° E
IDEFIX/ARIANE 42P 4.2 06:01:28 10° NNE 06:06:21 37° E 06:11:11 10° SSE
SKYMED 2 3.6 06:02:46 10° S 06:06:59 53° W 06:09:50 20° NNW
Meteor 1-28 Rocket 3.1 06:03:19 10° SSE 06:07:06 87° WSW 06:10:37 12° NNW
ISS -1.6 06:06:00 20° N 06:07:15 26° NE 06:10:04 10° E
SL-14 R/B 3.5 06:04:08 10° N 06:08:12 74° E 06:12:15 10° SSE
Cosmos 304 Rocket 3.6 06:05:04 14° NNW 06:09:09 81° WSW 06:13:55 10° SSE
Meteor 1-4 Rocket 2.9 06:07:19 10° SSW 06:10:50 43° W 06:14:26 10° N
OE (NEXTSAT) 4.3 06:10:23 42° WNW 06:11:26 71° SW 06:14:57 10° SE
Meteor 2-1 Rocket 4.4 06:12:41 10° S 06:18:14 78° E 06:23:55 10° NNE
Cosmos 1072 Rocket 4.5 06:12:48 10° S 06:19:02 90° NE 06:25:12 10° N
USA 234 4.1 06:14:34 10° ESE 06:20:44 45° NE 06:26:55 10° NNW
CZ-4 R/B 2.3 06:17:38 10° NNE 06:21:37 53° E 06:25:37 10° S
Cosmos 1538 Rocket 4.1 06:17:32 10° NNW 06:22:57 89° E 06:28:17 10° SSE
Aureole 1 4.1 06:22:25 10° SSW 06:25:24 85° ESE 06:28:42 10° NNE
ERBS 4.2 06:23:54 10° NNW 06:26:47 26° NE 06:29:42 10° ESE
Cosmos 1626 3.8 06:25:15 10° NNE 06:28:42 35° E 06:32:08 10° SSE
Cosmos 2333 Rocket 4.0 06:32:19 12° WSW 06:32:19 12° WSW 06:34:09 10° WSW
PSLV R/B 3.2 06:29:54 20° WSW 06:32:06 69° NNW 06:35:27 10° ENE
NOSS 3-1 (C) 4.3 06:26:03 10° NNW 06:33:48 75° ENE 06:42:13 10° SE
Cosmos 2221 2.4 06:30:17 10° SSW 06:34:36 68° W 06:38:55 10° N
Ariane Rocket 3.3 06:30:38 10° N 06:35:26 43° WNW 06:40:14 10° SW
Coronas F rocket 4.2 06:35:50 10° NE 06:37:22 15° ENE 06:38:53 10° ESE
TELKOM 3 4.2 06:36:34 22° WNW 06:37:26 26° NW 06:39:27 10° NNE
CSL-04 Debris 4.2 06:35:27 10° N 06:40:50 58° WNW 06:46:10 10° SSW
Cosmos 1603 3.9 06:38:05 10° NNW 06:43:44 77° ENE 06:49:23 10° SSE
Cosmos 389 Rocket 3.7 06:43:52 10° S 06:47:23 48° E 06:50:57 10° NNE
Cosmos 1908 4.1 06:44:33 10° S 06:48:17 54° E 06:52:01 10° NNE
Cosmos 2263 Rocket 3.5 06:43:50 10° S 06:49:11 46° ESE 06:54:37 10° NE
AQUARIUS 4.1 06:50:12 10° N 06:54:43 78° WNW 06:59:12 10° SSW
Cosmos 2058 3.4 06:51:08 10° NNW 06:54:57 38° W 06:58:47 10° SSW
COSMO-SKYMED 1 4.2 06:52:48 10° SW 06:55:14 15° W 06:57:42 10° WNW
Cosmos 2228 Rocket 4.1 06:51:22 10° S 06:55:41 52° E 07:00:00 10° NNE
PAYLOAD A 4.4 06:58:18 10° N 07:02:56 38° WNW 07:07:23 10° SW
Cosmos 292 Rocket 3.9 06:59:53 10° NNW 07:04:42 83° ENE 07:09:29 10° SSE
CZ-2C R/B 2.4 07:00:46 10° N 07:05:14 52° WNW 07:09:39 10° SSW
Cosmos 1805 Rocket 3.8 07:04:22 10° NNW 07:08:38 49° W 07:12:50 10° SSW
EP 2 4.2 07:06:07 10° SSW 07:08:47 89° ESE 07:11:24 10° NNE
Helios 1B rocket 2.5 07:05:59 10° SSE 07:10:04 89° WSW 07:14:12 10° NNW
